This demonstration page uses our WeatherBlox Daily Observations layout. Learn more.

Left ArrowRight Arrow

44.8408, -93.29828

Hourly Observations for March 13, 2016

Temp ( °F °C ) Dew Point ( °F °C ) Humidity (%) Winds ( mph kmh ) Pressure ( in mb ) Visibility ( mi km ) Precip ( " mm )
12:53 am 00:53 Mostly Cloudy 50 10 39 3.9 66 66 SE 7 11 29.91 1013 10 16 0.00 0.00
1:53 am 01:53 Mostly Cloudy 49 9.4 40 4.4 71 71 SE 6 9 29.90 1013 10 16 0.00 0.00
3:53 am 03:53 Mostly Cloudy 49 9.4 40 4.4 71 71 ESE 5 7 29.89 1012 10 16 0.00 0.00
4:53 am 04:53 Cloudy 49 9.4 40 4.4 71 71 SE 8 13 29.87 1012 10 16 0.00 0.00
5:53 am 05:53 Cloudy with Light Rain 49 9.4 41 5 74 74 SE 7 11 29.86 1011 10 16 0.00 0.03
6:53 am 06:53 Cloudy 48 8.9 41 5 77 77 ESE 7 11 29.86 1011 10 16 0.00 0.03
7:53 am 07:53 Cloudy 47 8.3 41 5 80 80 SE 7 11 29.87 1012 9 14 0.00 0.00
8:53 am 08:53 Cloudy 49 9.4 41 5 74 74 ESE 9 15 29.85 1011 10 16 0.00 0.00
9:12 am 09:12 Cloudy 48 9 41 5 76 76 SE 13 20 29.88 1012 10 16 0.00 0.00
9:53 am 09:53 Cloudy 50 10 43 6.1 77 77 SSE 12 19 29.83 1010 10 16 0.00 0.00
10:53 am 10:53 Cloudy 51 10.6 44 6.7 77 77 SE 12 19 29.83 1010 10 16 0.00 0.00
11:53 am 11:53 Cloudy 53 11.7 42 5.6 66 66 SE 13 20 29.80 1009 10 16 0.00 0.00
12:53 pm 12:53 Cloudy 52 11.1 42 5.6 69 69 SE 16 26 29.79 1009 10 16 0.00 0.00
1:53 pm 13:53 Cloudy 53 11.7 42 5.6 66 66 SSE 15 24 29.77 1008 10 16 0.00 0.00
2:53 pm 14:53 Cloudy 54 12.2 40 4.4 59 59 VRB 7 11 29.75 1008 10 16 0.00 0.00
3:53 pm 15:53 Cloudy 53 11.7 42 5.6 66 66 SE 12 19 29.74 1007 10 16 0.00 0.00
4:53 pm 16:53 Cloudy 54 12.2 44 6.7 69 69 SE 12 19 29.73 1007 10 16 0.00 0.00
5:53 pm 17:53 Cloudy 54 12.2 44 6.7 69 69 SSE 12 19 29.72 1007 10 16 0.00 0.00
6:53 pm 18:53 Cloudy 53 11.7 45 7.2 74 74 SSE 12 19 29.71 1006 10 16 0.00 0.00
7:53 pm 19:53 Cloudy 53 11.7 45 7.2 74 74 SSE 6 9 29.71 1006 10 16 0.00 0.00
8:53 pm 20:53 Cloudy 53 11.7 45 7.2 74 74 SSE 6 9 29.71 1006 10 16 0.00 0.00
9:53 pm 21:53 Cloudy 52 11.1 44 6.7 75 75 SE 6 9 29.70 1006 10 16 0.00 0.00
10:53 pm 22:53 Cloudy 52 11.1 45 7.2 77 77 SE 9 15 29.70 1006 10 16 0.00 0.00
11:53 pm 23:53 Cloudy 52 11.1 45 7.2 77 77 SSE 9 15 29.69 1005 10 16 0.00 0.00

Powered by AerisWeather